Radiation Dose at Monitoring Post of Fukushima Daini Nuclear Power Station
Date,Time,MP-1(microSv/h),MP-2(microSv/h),MP-3(microSv/h),MP-4(microSv/h),MP-5(microSv/h),MP-6(microSv/h),MP-7(microSv/h),Wind Direction,Wind Velocity(m/s),Rain
2014/09/01,00:00,0.637,0.441,0.679,0.616,0.612,0.274,0.238,north,1.3,No
2014/09/01,00:10,0.639,0.442,0.678,0.615,0.611,0.273,0.236,north,1.9,No
2014/09/01,00:20,0.639,0.441,0.678,0.614,0.611,0.275,0.239,north,1.4,No
2014/09/01,00:30,0.636,0.440,0.676,0.616,0.610,0.274,0.237,north,1.6,No
2014/09/01,00:40,0.640,0.440,0.675,0.616,0.611,0.274,0.238,north,1.8,No
2014/09/01,00:50,0.639,0.441,0.677,0.615,0.612,0.275,0.238,north,1.6,No
2014/09/01,01:00,0.641,0.441,0.677,0.617,0.611,0.274,0.236,west-northwest,0.7,No
2014/09/01,01:10,0.639,0.443,0.677,0.615,0.611,0.275,0.238,north,1.5,No
2014/09/01,01:20,0.640,0.439,0.676,0.615,0.612,0.275,0.237,north-northwest,1.1,No
2014/09/01,01:30,0.641,0.441,0.678,0.616,0.611,0.274,0.238,north,1.3,No
2014/09/01,01:40,0.639,0.441,0.678,0.617,0.610,0.274,0.237,north,1.4,No
2014/09/01,01:50,0.639,0.439,0.677,0.617,0.609,0.275,0.237,north,1.6,No
2014/09/01,02:00,0.639,0.439,0.677,0.616,0.612,0.275,0.238,north,1.6,No
2014/09/01,02:10,0.642,0.441,0.677,0.615,0.611,0.275,0.238,north,1.0,No
2014/09/01,02:20,0.640,0.440,0.678,0.615,0.612,0.276,0.237,north,1.1,No
2014/09/01,02:30,0.640,0.441,0.677,0.615,0.613,0.275,0.236,north,1.6,No
2014/09/01,02:40,0.640,0.438,0.676,0.612,0.612,0.275,0.237,north,1.8,No
2014/09/01,02:50,0.639,0.442,0.676,0.612,0.611,0.275,0.236,north,1.7,No
2014/09/01,03:00,0.639,0.442,0.677,0.612,0.612,0.273,0.239,north,1.5,No
2014/09/01,03:10,0.642,0.442,0.677,0.613,0.612,0.275,0.238,north,2.5,No
2014/09/01,03:20,0.639,0.441,0.676,0.612,0.613,0.274,0.238,north,2.2,No
2014/09/01,03:30,0.636,0.440,0.675,0.616,0.610,0.275,0.237,north,2.7,No
2014/09/01,03:40,0.638,0.441,0.679,0.614,0.610,0.276,0.236,north,3.2,No
2014/09/01,03:50,0.637,0.442,0.678,0.614,0.612,0.274,0.238,north,3.0,No
2014/09/01,04:00,0.639,0.441,0.676,0.613,0.612,0.275,0.237,north,2.8,No
2014/09/01,04:10,0.639,0.440,0.678,0.615,0.612,0.273,0.238,north,3.1,No
2014/09/01,04:20,0.637,0.441,0.677,0.614,0.611,0.274,0.237,north,2.7,No
2014/09/01,04:30,0.639,0.440,0.677,0.615,0.612,0.276,0.238,north,3.1,No
2014/09/01,04:40,0.639,0.442,0.676,0.614,0.611,0.273,0.239,north,2.5,No
2014/09/01,04:50,0.640,0.441,0.675,0.615,0.611,0.275,0.236,north,2.7,No
2014/09/01,05:00,0.638,0.440,0.677,0.615,0.612,0.273,0.238,north,2.8,No
2014/09/01,05:10,0.637,0.443,0.677,0.614,0.612,0.274,0.237,north,3.1,No
2014/09/01,05:20,0.638,0.440,0.678,0.614,0.610,0.276,0.238,north,2.8,No
2014/09/01,05:30,0.639,0.439,0.676,0.614,0.612,0.274,0.238,north-northwest,2.5,No
2014/09/01,05:40,0.639,0.440,0.677,0.613,0.610,0.276,0.236,north,2.4,No
2014/09/01,05:50,0.638,0.441,0.676,0.615,0.613,0.275,0.237,north,2.2,No
2014/09/01,06:00,0.641,0.440,0.676,0.614,0.610,0.274,0.237,north,1.9,No
2014/09/01,06:10,0.641,0.441,0.678,0.614,0.612,0.275,0.237,north,2.5,No
2014/09/01,06:20,0.642,0.441,0.676,0.614,0.614,0.273,0.239,north,3.3,No
2014/09/01,06:30,0.642,0.440,0.677,0.615,0.613,0.275,0.235,north,2.9,No
2014/09/01,06:40,0.640,0.440,0.678,0.613,0.612,0.275,0.238,north,3.3,No
2014/09/01,06:50,0.641,0.441,0.678,0.615,0.612,0.274,0.238,north,2.5,No
2014/09/01,07:00,0.642,0.441,0.677,0.614,0.614,0.275,0.236,north-northeast,1.9,No
2014/09/01,07:10,0.642,0.441,0.676,0.619,0.612,0.274,0.238,north,2.1,No
2014/09/01,07:20,0.641,0.441,0.680,0.618,0.611,0.274,0.239,north-northeast,2.0,No
2014/09/01,07:30,0.641,0.442,0.679,0.615,0.613,0.275,0.236,north,1.2,No
2014/09/01,07:40,0.642,0.443,0.679,0.619,0.613,0.274,0.237,north-northwest,0.8,No
2014/09/01,07:50,0.641,0.441,0.679,0.617,0.614,0.275,0.238,-,CALM,No
2014/09/01,08:00,0.640,0.442,0.678,0.617,0.614,0.275,0.237,north-northeast,1.0,No
2014/09/01,08:10,0.639,0.443,0.678,0.620,0.615,0.274,0.238,north-northwest,1.6,Yes
2014/09/01,08:20,0.644,0.444,0.677,0.617,0.614,0.273,0.238,north-northwest,2.2,No
2014/09/01,08:30,0.645,0.442,0.680,0.621,0.616,0.275,0.236,north-northwest,2.5,No
2014/09/01,08:40,0.643,0.444,0.681,0.619,0.615,0.275,0.238,north,1.3,No
2014/09/01,08:50,0.643,0.443,0.682,0.618,0.615,0.272,0.238,northeast,0.9,No
2014/09/01,09:00,0.642,0.443,0.680,0.621,0.616,0.275,0.237,north-northeast,1.4,No
2014/09/01,09:10,0.644,0.443,0.680,0.618,0.616,0.276,0.235,north-northeast,0.9,No
2014/09/01,09:20,0.647,0.443,0.681,0.623,0.613,0.274,0.236,northeast,0.5,No
2014/09/01,09:30,0.646,0.445,0.682,0.621,0.614,0.273,0.238,northeast,1.6,No
2014/09/01,09:40,0.646,0.445,0.681,0.621,0.616,0.275,0.236,north,1.9,No
2014/09/01,09:50,0.648,0.446,0.681,0.621,0.614,0.274,0.234,north,2.1,No
2014/09/01,10:00,0.647,0.445,0.681,0.624,0.614,0.275,0.238,north,1.0,No
2014/09/01,10:10,0.648,0.446,0.681,0.623,0.613,0.273,0.237,north-northeast,2.5,No
2014/09/01,10:20,0.648,0.446,0.683,0.624,0.616,0.275,0.236,north-northeast,2.6,No
2014/09/01,10:30,0.647,0.445,0.684,0.623,0.616,0.274,0.235,north-northeast,2.1,No
2014/09/01,10:40,0.648,0.445,0.684,0.622,0.615,0.274,0.237,north,2.6,No
2014/09/01,10:50,0.645,0.447,0.682,0.628,0.616,0.275,0.237,northeast,3.5,No
2014/09/01,11:00,0.648,0.446,0.683,0.627,0.613,0.274,0.238,northeast,4.0,No
2014/09/01,11:10,0.648,0.446,0.683,0.627,0.614,0.275,0.235,north-northeast,3.8,No
2014/09/01,11:20,0.649,0.445,0.684,0.625,0.615,0.274,0.237,north-northeast,3.9,No
2014/09/01,11:30,0.649,0.445,0.683,0.624,0.615,0.274,0.237,northeast,3.5,No
2014/09/01,11:40,0.649,0.445,0.684,0.625,0.615,0.275,0.237,northeast,2.8,No
2014/09/01,11:50,0.650,0.445,0.683,0.628,0.614,0.276,0.234,north-northeast,3.6,No
2014/09/01,12:00,0.650,0.444,0.682,0.629,0.613,0.275,0.237,northeast,2.9,No
2014/09/01,12:10,0.647,0.445,0.681,0.627,0.614,0.274,0.238,northeast,2.8,No
2014/09/01,12:20,0.652,0.444,0.684,0.627,0.614,0.274,0.237,north-northeast,2.8,No
2014/09/01,12:30,0.653,0.445,0.684,0.628,0.613,0.274,0.235,north,3.6,No
2014/09/01,12:40,0.651,0.446,0.681,0.627,0.615,0.275,0.237,north-northeast,3.8,No
2014/09/01,12:50,0.652,0.446,0.682,0.629,0.614,0.274,0.239,north-northeast,3.9,No
2014/09/01,13:00,0.652,0.446,0.682,0.629,0.612,0.274,0.237,northeast,3.9,Yes
2014/09/01,13:10,0.651,0.446,0.682,0.632,0.612,0.275,0.236,north-northeast,3.6,Yes
2014/09/01,13:20,0.650,0.445,0.684,0.630,0.613,0.276,0.236,north,3.6,No
2014/09/01,13:30,0.650,0.444,0.680,0.632,0.613,0.274,0.237,north,4.1,Yes
2014/09/01,13:40,0.650,0.444,0.682,0.630,0.612,0.274,0.236,north,4.2,No
2014/09/01,13:50,0.650,0.446,0.681,0.631,0.613,0.275,0.236,north,3.3,Yes
2014/09/01,14:00,0.650,0.447,0.683,0.630,0.613,0.275,0.238,north,4.4,No
2014/09/01,14:10,0.651,0.445,0.682,0.628,0.612,0.274,0.239,north,3.6,No
2014/09/01,14:20,0.653,0.446,0.681,0.629,0.612,0.275,0.236,north,3.8,Yes
2014/09/01,14:30,0.650,0.447,0.682,0.630,0.612,0.276,0.237,north-northeast,3.1,Yes
2014/09/01,14:40,0.653,0.446,0.681,0.631,0.612,0.275,0.239,north,4.3,Yes
2014/09/01,14:50,0.652,0.445,0.684,0.629,0.613,0.274,0.240,north,4.2,No
2014/09/01,15:00,0.652,0.445,0.680,0.630,0.610,0.274,0.237,north-northeast,4.2,No
2014/09/01,15:10,0.650,0.445,0.682,0.632,0.611,0.274,0.237,north-northeast,3.6,No
2014/09/01,15:20,0.652,0.445,0.681,0.628,0.612,0.274,0.239,north-northeast,4.2,No
2014/09/01,15:30,0.654,0.445,0.682,0.629,0.615,0.275,0.237,north,4.4,No
2014/09/01,15:40,0.651,0.446,0.683,0.630,0.611,0.275,0.236,north,3.0,Yes
2014/09/01,15:50,0.650,0.444,0.680,0.629,0.611,0.275,0.239,north,2.8,Yes
2014/09/01,16:00,0.651,0.445,0.682,0.630,0.613,0.274,0.238,north,3.2,Yes
2014/09/01,16:10,0.649,0.444,0.682,0.628,0.613,0.275,0.236,north,1.9,Yes
2014/09/01,16:20,0.647,0.444,0.682,0.625,0.612,0.276,0.238,north-northwest,1.6,Yes
2014/09/01,16:30,0.647,0.446,0.683,0.625,0.613,0.275,0.239,north,1.5,Yes
2014/09/01,16:40,0.649,0.446,0.682,0.625,0.614,0.275,0.237,north-northwest,2.8,Yes
2014/09/01,16:50,0.647,0.445,0.683,0.626,0.613,0.275,0.238,north-northwest,2.3,Yes
2014/09/01,17:00,0.648,0.447,0.682,0.626,0.614,0.276,0.239,north-northwest,3.3,Yes
2014/09/01,17:10,0.647,0.444,0.680,0.628,0.612,0.276,0.237,north-northwest,3.8,Yes
2014/09/01,17:20,0.649,0.446,0.682,0.626,0.613,0.275,0.239,north-northwest,4.1,Yes
2014/09/01,17:30,0.649,0.445,0.683,0.623,0.611,0.274,0.238,north-northwest,4.1,Yes
2014/09/01,17:40,0.646,0.444,0.681,0.623,0.609,0.276,0.239,north-northwest,4.5,Yes
2014/09/01,17:50,0.646,0.443,0.683,0.623,0.612,0.275,0.239,north-northwest,4.7,Yes
2014/09/01,18:00,0.646,0.443,0.679,0.623,0.611,0.276,0.236,north-northwest,5.0,Yes
2014/09/01,18:10,0.644,0.445,0.678,0.623,0.611,0.275,0.238,north-northwest,5.6,Yes
2014/09/01,18:20,0.644,0.443,0.677,0.621,0.610,0.275,0.238,north-northwest,5.0,Yes
2014/09/01,18:30,0.645,0.442,0.678,0.621,0.610,0.276,0.237,north-northwest,4.4,Yes
2014/09/01,18:40,0.641,0.443,0.678,0.619,0.608,0.275,0.238,north-northwest,4.4,Yes
2014/09/01,18:50,0.641,0.441,0.679,0.619,0.611,0.277,0.236,north-northwest,4.7,Yes
2014/09/01,19:00,0.642,0.442,0.675,0.619,0.608,0.275,0.237,north-northwest,4.7,Yes
2014/09/01,19:10,0.642,0.442,0.675,0.619,0.609,0.274,0.237,north-northwest,5.0,No
2014/09/01,19:20,0.642,0.439,0.675,0.616,0.608,0.276,0.237,north-northwest,5.3,Yes
2014/09/01,19:30,0.640,0.441,0.675,0.615,0.610,0.274,0.238,north-northwest,5.5,Yes
2014/09/01,19:40,0.640,0.440,0.674,0.615,0.610,0.274,0.235,north-northwest,4.9,Yes
2014/09/01,19:50,0.639,0.440,0.675,0.615,0.609,0.274,0.236,north-northwest,5.6,No
2014/09/01,20:00,0.638,0.440,0.674,0.615,0.609,0.273,0.234,north-northwest,6.5,No
2014/09/01,20:10,0.638,0.439,0.674,0.615,0.606,0.274,0.237,north-northwest,6.4,No
2014/09/01,20:20,0.639,0.440,0.675,0.612,0.608,0.273,0.236,north-northwest,6.3,Yes
2014/09/01,20:30,0.639,0.439,0.674,0.612,0.606,0.274,0.236,north-northwest,6.7,Yes
2014/09/01,20:40,0.640,0.440,0.675,0.612,0.607,0.275,0.236,north-northwest,7.0,Yes
2014/09/01,20:50,0.637,0.440,0.676,0.613,0.608,0.273,0.235,north-northwest,6.6,Yes
2014/09/01,21:00,0.636,0.438,0.672,0.614,0.609,0.274,0.236,north-northwest,7.0,Yes
2014/09/01,21:10,0.637,0.438,0.673,0.614,0.607,0.271,0.236,north-northwest,7.8,Yes
2014/09/01,21:20,0.636,0.439,0.672,0.610,0.606,0.275,0.236,north-northwest,8.2,Yes
2014/09/01,21:30,0.635,0.438,0.672,0.610,0.606,0.275,0.235,north-northwest,8.0,Yes
2014/09/01,21:40,0.637,0.439,0.673,0.611,0.608,0.273,0.236,north-northwest,8.0,No
2014/09/01,21:50,0.638,0.438,0.676,0.610,0.606,0.273,0.237,north-northwest,8.3,Yes
2014/09/01,22:00,0.641,0.439,0.674,0.610,0.608,0.273,0.235,north-northwest,8.5,Yes
2014/09/01,22:10,0.638,0.439,0.674,0.611,0.607,0.274,0.237,north-northwest,8.4,Yes
2014/09/01,22:20,0.636,0.440,0.673,0.612,0.608,0.272,0.235,north-northwest,7.8,No
2014/09/01,22:30,0.638,0.438,0.675,0.613,0.607,0.274,0.236,north-northwest,7.3,No
2014/09/01,22:40,0.639,0.438,0.674,0.610,0.607,0.273,0.236,north-northwest,7.4,No
2014/09/01,22:50,0.637,0.440,0.674,0.611,0.608,0.272,0.236,north-northwest,7.5,No
2014/09/01,23:00,0.637,0.438,0.674,0.611,0.609,0.275,0.236,north-northwest,7.8,No
2014/09/01,23:10,0.641,0.439,0.673,0.609,0.608,0.272,0.235,north-northwest,8.9,Yes
2014/09/01,23:20,0.638,0.440,0.674,0.608,0.608,0.273,0.237,north-northwest,6.9,Yes
2014/09/01,23:30,0.638,0.440,0.672,0.610,0.606,0.275,0.235,northwest,6.4,Yes
2014/09/01,23:40,0.638,0.437,0.672,0.606,0.605,0.274,0.236,north-northwest,6.9,Yes
2014/09/01,23:50,0.635,0.437,0.669,0.605,0.604,0.274,0.235,northwest,6.9,Yes
